Camden, AR

6:38 AM CDT on March 29, 2017 (GMT -0500)
Harrell

Weather History for KCDH - March, 2014

Change the Weather History Date:

Sunday, March 9, 2014

  Actual Average Record
Temperature  
Mean Temperature 49 °F -  
Max Temperature 57 °F 67 °F 83 °F (1974)
Min Temperature 41 °F 40 °F 16 °F (1932)
Degree Days  
Heating Degree Days 16    
Moisture  
Dew Point 43 °F    
Average Humidity 77    
Maximum Humidity 100    
Minimum Humidity 55    
Precipitation  
Precipitation 0.00 in - - ()
Sea Level Pressure  
Sea Level Pressure 30.25 in    
Wind  
Wind Speed - (North)    
Max Wind Speed -    
Max Gust Speed -    
Visibility 4 miles    
Events Fog , Rain    
Averages and records for this station are not official NWS values.
T = Trace of Precipitation, MM = Missing Value Source: NWS Daily Summary

Daily Weather History Graph

Daily Weather History Graph

Search for Another Location

Airport or City:

Trip Planner

Search our weather history database for the weather conditions in past years. The results will help you decide how hot, cold, wet, or windy it might be!

Date:

Astronomy

Mar. 09, 2014 Rise Set
Actual Time 7:29 AM CDT 7:14 PM CDT
Civil Twilight 7:04 AM CDT 7:39 PM CDT
Nautical Twilight 6:35 AM CDT 8:07 PM CDT
Astronomical Twilight 6:06 AM CDT 8:36 PM CDT
Moon 1:19 PM CDT (3/9) 3:43 AM CDT (3/9)
Length of Visible Light 12h 34m
Length of Day
11h 44m
First Quarter, 61% of the Moon is Illuminated
Mar 9
First Quarter
Mar 16
Full
Mar 23
Last Quarter
Mar 30
New
Apr 7
First Quarter

Hourly Weather History & Observations

Time (CDT) Temp. Dew Point Humidity Pressure Visibility Wind Dir Wind Speed Gust Speed Precip Events Conditions
12:15 AM 53.6 °F 50.0 °F 88% 30.22 in 5.0 mi North - - N/A Rain Light Rain
12:35 AM 53.6 °F 50.0 °F 88% 30.21 in 5.0 mi North - - N/A   Overcast
12:55 AM 53.6 °F 50.0 °F 88% 30.21 in 5.0 mi North - - N/A   Overcast
1:15 AM 53.6 °F 50.0 °F 88% 30.19 in 3.0 mi North - - N/A Rain Light Rain
1:35 AM 53.6 °F 50.0 °F 88% 30.19 in 4.0 mi North - - N/A   Mostly Cloudy
1:55 AM 51.8 °F 50.0 °F 94% 30.19 in 4.0 mi North - - N/A   Overcast
3:15 AM 53.6 °F 50.0 °F 88% 30.21 in 7.0 mi North - - N/A   Overcast
3:35 AM 51.8 °F 48.2 °F 88% 30.20 in 8.0 mi North - - N/A   Overcast
3:55 AM 50.0 °F 44.6 °F 82% 30.21 in 9.0 mi North - - N/A   Overcast
4:15 AM 50.0 °F 44.6 °F 82% 30.22 in 9.0 mi North - - N/A   Overcast
4:35 AM 50.0 °F 44.6 °F 82% 30.21 in 8.0 mi North - - N/A Rain Light Rain
4:55 AM 50.0 °F 44.6 °F 82% 30.21 in 8.0 mi North - - N/A   Overcast
5:15 AM 50.0 °F 44.6 °F 82% 30.21 in 9.0 mi North - - N/A   Overcast
5:35 AM 50.0 °F 44.6 °F 82% 30.21 in 8.0 mi North - - N/A   Overcast
5:55 AM 48.2 °F 44.6 °F 87% 30.22 in 7.0 mi North - - N/A Rain Light Rain
6:15 AM 48.2 °F 42.8 °F 82% 30.23 in 2.5 mi North - - N/A Rain Light Rain
6:35 AM 46.4 °F 44.6 °F 93% 30.24 in 3.0 mi North - - N/A Rain Light Rain
6:55 AM 46.4 °F 44.6 °F 93% 30.26 in 4.0 mi North - - N/A   Overcast
7:15 AM 46.4 °F 42.8 °F 87% 30.26 in 3.0 mi North - - N/A   Overcast
7:35 AM 46.4 °F 41.0 °F 81% 30.28 in 4.0 mi North - - N/A   Overcast
7:55 AM 44.6 °F 41.0 °F 87% 30.29 in 3.0 mi North - - N/A Rain Light Rain
8:15 AM 44.6 °F 41.0 °F 87% 30.30 in 3.0 mi North - - N/A Rain Light Rain
8:35 AM 44.6 °F 39.2 °F 81% 30.31 in 1.2 mi North - - N/A Rain Light Rain
8:55 AM 44.6 °F 39.2 °F 81% 30.31 in 1.8 mi North - - N/A Rain Light Rain
9:15 AM 44.6 °F 39.2 °F 81% 30.32 in 1.0 mi North - - N/A Rain Rain
9:35 AM 44.6 °F 39.2 °F 81% 30.32 in 1.5 mi North - - N/A Rain Light Rain
9:55 AM 44.6 °F 41.0 °F 87% 30.32 in 1.2 mi North - - N/A Rain Light Rain
10:15 AM 44.6 °F 41.0 °F 87% 30.32 in 1.5 mi North - - N/A   Overcast
10:40 AM 44.6 °F 39.2 °F 81% 30.33 in 2.0 mi North - - N/A   Haze
10:55 AM 46.4 °F 39.2 °F 76% 30.34 in 2.0 mi North - - N/A   Haze
11:15 AM 46.4 °F 41.0 °F 81% 30.33 in 2.0 mi North - - N/A   Haze
11:35 AM 46.4 °F 39.2 °F 76% 30.33 in 2.5 mi North - - N/A   Haze
11:55 AM 48.2 °F 39.2 °F 71% 30.33 in 2.5 mi North - - N/A   Haze
12:15 PM 48.2 °F 39.2 °F 71% 30.33 in 3.0 mi North - - N/A   Haze
12:35 PM 48.2 °F 39.2 °F 71% 30.33 in 3.0 mi North - - N/A   Haze
12:55 PM 50.0 °F 39.2 °F 66% 30.32 in 3.0 mi North - - N/A   Haze
1:15 PM 53.6 °F 39.2 °F 58% 30.31 in 3.0 mi North - - N/A   Haze
1:35 PM 53.6 °F 39.2 °F 58% 30.30 in 3.0 mi North - - N/A   Haze
1:55 PM 53.6 °F 39.2 °F 58% 30.28 in 4.0 mi North - - N/A   Haze
2:15 PM 55.4 °F 41.0 °F 58% 30.27 in 4.0 mi North - - N/A   Haze
2:35 PM 55.4 °F 41.0 °F 58% 30.26 in 4.0 mi North - - N/A   Haze
2:55 PM 57.2 °F 41.0 °F 55% 30.26 in 3.0 mi North - - N/A   Haze
3:20 PM 57.2 °F 41.0 °F 55% 30.25 in 5.0 mi North - - N/A   Haze
3:35 PM 57.2 °F 41.0 °F 55% 30.24 in 5.0 mi North - - N/A   Haze
3:55 PM 57.2 °F 41.0 °F 55% 30.24 in 5.0 mi North - - N/A   Haze
4:15 PM 57.2 °F 41.0 °F 55% 30.23 in 5.0 mi North - - N/A   Haze
4:35 PM 57.2 °F 41.0 °F 55% 30.23 in 5.0 mi North - - N/A   Haze
4:55 PM 57.2 °F 41.0 °F 55% 30.22 in 5.0 mi North - - N/A   Haze
5:15 PM 57.2 °F 42.8 °F 59% 30.22 in 5.0 mi North - - N/A   Haze
5:35 PM 57.2 °F 42.8 °F 59% 30.22 in 5.0 mi North - - N/A   Haze
5:55 PM 57.2 °F 42.8 °F 59% 30.22 in 5.0 mi North - - N/A   Haze
6:15 PM 57.2 °F 42.8 °F 59% 30.21 in 5.0 mi North - - N/A   Haze
6:35 PM 57.2 °F 42.8 °F 59% 30.21 in 5.0 mi North - - N/A   Haze
6:55 PM 55.4 °F 42.8 °F 63% 30.21 in 5.0 mi North - - N/A   Haze
7:15 PM 55.4 °F 44.6 °F 67% 30.21 in 5.0 mi North - - N/A   Haze
7:35 PM 53.6 °F 44.6 °F 72% 30.21 in 7.0 mi North - - N/A   Overcast
8:00 PM 53.6 °F 44.6 °F 72% 30.20 in 7.0 mi North - - N/A   Overcast
8:15 PM 53.6 °F 44.6 °F 72% 30.20 in 7.0 mi North - - N/A   Overcast
8:35 PM 50.0 °F 44.6 °F 82% 30.20 in 7.0 mi North - - N/A   Overcast
8:55 PM 48.2 °F 44.6 °F 87% 30.20 in 4.0 mi North - - N/A   Scattered Clouds
9:15 PM 48.2 °F 44.6 °F 87% 30.20 in 5.0 mi North - - N/A   Clear
9:35 PM 46.4 °F 44.6 °F 93% 30.20 in 4.0 mi North - - N/A   Clear
9:55 PM 46.4 °F 42.8 °F 87% 30.21 in 1.5 mi North - - N/A   Clear
10:15 PM 44.6 °F 42.8 °F 93% 30.21 in 3.0 mi North - - N/A   Clear
10:35 PM 44.6 °F 41.0 °F 87% 30.22 in 2.5 mi North - - N/A   Clear
10:55 PM 42.8 °F 41.0 °F 93% 30.22 in 0.2 mi North - - N/A Fog Fog
11:15 PM 41.0 °F 39.2 °F 93% 30.22 in 1.5 mi North - - N/A   Clear
11:35 PM 41.0 °F 41.0 °F 100% 30.22 in 2.0 mi North - - N/A   Scattered Clouds
11:55 PM 41.0 °F 39.2 °F 93% 30.21 in 2.5 mi North - - N/A   Mostly Cloudy
12:15 AM 42.8 °F 41.0 °F 93% 30.21 in 3.0 mi North - - N/A   Overcast
12:35 AM 44.6 °F 41.0 °F 87% 30.21 in 3.0 mi North - - N/A   Overcast
12:55 AM 46.4 °F 44.6 °F 93% 30.21 in 3.0 mi North - - N/A   Overcast